Wink, TX

11:01 PM CDT on March 26, 2017 (GMT -0500)
Winkler County

Weather History for KINK - January, 2014

Change the Weather History Date:

Thursday, January 9, 2014

  Actual Average Record
Temperature  
Mean Temperature 44 °F -  
Max Temperature 61 °F 55 °F 82 °F (2002)
Min Temperature 27 °F 25 °F 4 °F (1967)
Degree Days  
Heating Degree Days 21    
Moisture  
Dew Point 26 °F    
Average Humidity 55    
Maximum Humidity 75    
Minimum Humidity 26    
Precipitation  
Precipitation 0.00 in - - ()
Sea Level Pressure  
Sea Level Pressure 30.02 in    
Wind  
Wind Speed 6 mph (NNE)    
Max Wind Speed 9 mph    
Max Gust Speed -    
Visibility 10 miles    
Events      
Averages and records for this station are not official NWS values.
T = Trace of Precipitation, MM = Missing Value Source: NWS Daily Summary

Daily Weather History Graph

Daily Weather History Graph

Search for Another Location

Airport or City:

Trip Planner

Search our weather history database for the weather conditions in past years. The results will help you decide how hot, cold, wet, or windy it might be!

Date:

Astronomy

Jan. 09, 2014 Rise Set
Actual Time 7:53 AM CST 6:06 PM CST
Civil Twilight 7:27 AM CST 6:33 PM CST
Nautical Twilight 6:56 AM CST 7:03 PM CST
Astronomical Twilight 6:27 AM CST 7:32 PM CST
Moon 1:27 PM CST (1/9) 2:12 AM CST (1/9)
Length of Visible Light 11h 05m
Length of Day
10h 12m
Waxing Gibbous, 66% of the Moon is Illuminated
Jan 9
Waxing Gibbous
Jan 15
Full
Jan 23
Last Quarter
Jan 30
New
Feb 6
First Quarter

Hourly Weather History & Observations

Time (CST) Temp. Windchill Dew Point Humidity Pressure Visibility Wind Dir Wind Speed Gust Speed Precip Events Conditions
12:53 AM 39.0 °F 33.4 °F 26.1 °F 60% 30.03 in 10.0 mi ENE 8.1 mph - N/A   Clear
1:53 AM 34.0 °F 28.8 °F 24.1 °F 67% 30.04 in 10.0 mi North 5.8 mph - N/A   Clear
2:53 AM 32.0 °F 25.6 °F 23.0 °F 69% 30.05 in 10.0 mi North 6.9 mph - N/A   Clear
3:53 AM 30.0 °F 22.4 °F 21.9 °F 72% 30.06 in 10.0 mi NNW 8.1 mph - N/A   Clear
4:53 AM 30.0 °F 21.7 °F 21.0 °F 69% 30.07 in 10.0 mi North 9.2 mph - N/A   Clear
5:53 AM 28.9 °F 21.1 °F 21.0 °F 72% 30.09 in 10.0 mi North 8.1 mph - N/A   Clear
6:53 AM 27.0 °F 18.7 °F 19.9 °F 75% 30.11 in 10.0 mi North 8.1 mph - N/A   Clear
7:53 AM 27.0 °F 18.7 °F 19.9 °F 75% 30.13 in 10.0 mi NNW 8.1 mph - N/A   Clear
8:53 AM 30.0 °F 23.2 °F 21.0 °F 69% 30.15 in 10.0 mi North 6.9 mph - N/A   Clear
9:53 AM 35.1 °F 29.3 °F 21.9 °F 59% 30.15 in 10.0 mi NNE 6.9 mph - N/A   Clear
10:53 AM 41.0 °F - 24.1 °F 51% 30.13 in 10.0 mi Calm Calm - N/A   Clear
11:53 AM 44.1 °F - 26.1 °F 49% 30.09 in 10.0 mi Calm Calm - N/A   Clear
12:53 PM 50.0 °F - 26.1 °F 39% 30.03 in 10.0 mi Calm Calm - N/A   Clear
1:53 PM 55.0 °F - 27.0 °F 34% 29.97 in 10.0 mi South 3.5 mph - N/A   Clear
2:53 PM 59.0 °F - 27.0 °F 29% 29.93 in 10.0 mi Calm Calm - N/A   Clear
3:53 PM 61.0 °F - 26.1 °F 26% 29.91 in 10.0 mi SE 6.9 mph - N/A   Clear
5:53 PM 55.9 °F - 28.0 °F 34% 29.91 in 10.0 mi SSE 6.9 mph - N/A   Clear
6:53 PM 51.1 °F - 28.9 °F 43% 29.92 in 10.0 mi SSE 5.8 mph - N/A   Clear
7:53 PM 48.0 °F - 30.0 °F 50% 29.94 in 10.0 mi Calm Calm - N/A   Clear
8:53 PM 48.9 °F - 30.9 °F 50% 29.94 in 10.0 mi WSW 3.5 mph - N/A   Clear
9:53 PM 45.0 °F 41.2 °F 30.9 °F 58% 29.92 in 10.0 mi SSE 6.9 mph - N/A   Clear
10:53 PM 48.9 °F - 35.1 °F 59% 29.90 in 10.0 mi SE 8.1 mph - N/A   Clear
11:53 PM 46.9 °F - 35.1 °F 63% 29.89 in 10.0 mi WSW 4.6 mph - N/A   Clear